Starlink 30556

operational
NORAD ID: 58031 Int'l Des: 2023-156 Owner: SPXS Country: US Constellation: starlink
LEOCIRCULAR

About Starlink 30556

Description loading...

Live Position

Loading 3D Globe...

Upcoming Passes

Altitude History

Altitude vs Time

uPlot chart will show altitude changes over time

Two-Line Element Set

1 58031U 23156D 25304.25528899 .00000161 00000-0 17566-4 0 9993
2 58031 53.1610 329.6079 0001297 99.7741 260.3406 15.30194355116349
Epoch: Oct 31, 2025 • Age: 13 hours

Current Status

Altitude 477.7 km
Velocity 7.63 km/s
Sub-Earth Point -7.22°S, 2.03°E
Launch Date Oct 9, 2023
Age 2 years
Type internet

Technical Details

Classification Payload
Mass 730.00 kg
Dry Mass 700.00 kg
Total Mass 730.00 kg
Length 0.30 m
Diameter 4.10 m
Span 29.00 m
Shape Box + pan
Manufacturer SPXS
Bus Type Starlink V2M
Phase Status In Orbit
Owner/State SPXS/US

Large Constellations

Loading constellations...